This is the latest recevied weather packets stored in our database for station/object AA8FM-13. If no packets are shown the sender has not sent any weather packets the latest 10 day(s).
| Time | Temp. | Humidity | Pressure | Rain* | Wind** | Luminosity | Snow |
|---|---|---|---|---|---|---|---|
| 1777842027 | 15.56° C | 36% | 1012.3 hPa | 0 mm | - | 366 W/m² | - |
| 1777841724 | 15.56° C | 35% | 1012.3 hPa | 0 mm | - | 376 W/m² | - |
| 1777841421 | 15.56° C | 38% | 1012.3 hPa | 0 mm | - | 399 W/m² | - |
| 1777841118 | 15.56° C | 36% | 1012.4 hPa | 0 mm | - | 417 W/m² | - |
| 1777840815 | 15° C | 37% | 1012.6 hPa | 0 mm | - | 425 W/m² | - |
| 1777840512 | 15° C | 37% | 1012.5 hPa | 0 mm | - | 430 W/m² | - |
| 1777840209 | 15° C | 35% | 1012.4 hPa | 0 mm | - | 458 W/m² | - |
| 1777839906 | 15° C | 39% | 1012.9 hPa | 0 mm | - | 473 W/m² | - |
| 1777839605 | 14.44° C | 39% | 1012.9 hPa | 0 mm | - | 359 W/m² | - |
| 1777839303 | 15° C | 40% | 1012.6 hPa | 0 mm | - | 481 W/m² | - |
| 1777838999 | 14.44° C | 38% | 1012.9 hPa | 0 mm | - | 496 W/m² | - |
| 1777838695 | 14.44° C | 38% | 1013.1 hPa | 0 mm | - | 529 W/m² | - |
| 1777838392 | 15° C | 39% | 1013.1 hPa | 0 mm | - | 133 W/m² | - |
| 1777838090 | 15° C | 37% | 1013.3 hPa | 0 mm | - | 539 W/m² | - |
| 1777837785 | 15° C | 36% | 1013.4 hPa | 0 mm | - | 547 W/m² | - |
| 1777837483 | 15° C | 36% | 1013.4 hPa | 0 mm | - | 581 W/m² | - |
| 1777837178 | 15.56° C | 40% | 1013.5 hPa | 0 mm | - | 603 W/m² | - |
| 1777836874 | 15° C | 41% | 1013.6 hPa | 0 mm | - | 621 W/m² | - |
| 1777836570 | 15° C | 38% | 1013.7 hPa | 0 mm | - | 609 W/m² | - |
| 1777836266 | 15° C | 38% | 1013.7 hPa | 0 mm | - | 631 W/m² | - |
| 1777835962 | 15° C | 37% | 1013.9 hPa | 0 mm | - | 673 W/m² | - |
| 1777835660 | 15.56° C | 39% | 1013.8 hPa | 0 mm | - | 679 W/m² | - |
| 1777835356 | 14.44° C | 40% | 1014 hPa | 0 mm | - | 626 W/m² | - |
| 1777835054 | 14.44° C | 40% | 1014 hPa | 0 mm | - | 655 W/m² | - |
| 1777834750 | 15° C | 45% | 1014.1 hPa | 0 mm | - | 665 W/m² | - |
* Rain latest hour (hover to see other rain measurements)
** Current wind speed in m/s (hover to see current wind gust speed)